Stebbins, AK

8:26 AM AKST on February 09, 2016 (GMT -0900)
St Michael AP, St Michael, AK

Weather History for PAMK - December, 2013

Change the Weather History Date:

Monday, December 16, 2013

  Actual Average (PAUN) Record (PAUN)
Temperature  
Mean Temperature 10 °F -  
Max Temperature 18 °F 12 °F 42 °F (1989)
Min Temperature 3 °F -1 °F -36 °F (1977)
Degree Days  
Heating Degree Days 54    
Moisture  
Dew Point 10 °F    
Average Humidity 88    
Maximum Humidity 93    
Minimum Humidity 83    
Precipitation  
Precipitation 0.00 in - - ()
Sea Level Pressure  
Sea Level Pressure 30.33 in    
Wind  
Wind Speed 11 mph (SW)    
Max Wind Speed 16 mph    
Max Gust Speed -    
Visibility 8 miles    
Events Snow    
Averages and records for this station are not official NWS values.
T = Trace of Precipitation, MM = Missing Value Source: NWS Daily Summary

Daily Weather History Graph

Daily Weather History Graph

Search for Another Location

Airport or City:

Trip Planner

Search our weather history database for the weather conditions in past years. The results will help you decide how hot, cold, wet, or windy it might be!

Date:

Astronomy

Dec. 16, 2013 Rise Set
Actual Time 11:28 AM AKST 4:00 PM AKST
Civil Twilight 10:14 AM AKST 5:13 PM AKST
Nautical Twilight 9:08 AM AKST 6:20 PM AKST
Astronomical Twilight 8:09 AM AKST 7:18 PM AKST
Moon 4:29 PM AKST (12/16) 10:17 AM AKST (12/16)
Length of Visible Light 6h 59m
Length of Day
4h 31m
Full, 100% of the Moon is Illuminated
Dec 16
Full
Dec 17
Full
Dec 25
Last Quarter
Jan 1
New
Jan 7
First Quarter

Hourly Weather History & Observations

Time (AKST) Temp. Windchill Dew Point Humidity Pressure Visibility Wind Dir Wind Speed Gust Speed Precip Events Conditions
12:05 AM 6.8 °F -3.5 °F 3.2 °F 85% 30.31 in 10.0 mi SSW 5.8 mph - 0.00 in Snow Light Snow
12:16 AM 6.8 °F -4.8 °F 3.2 °F 85% 30.31 in 10.0 mi SW 6.9 mph - 0.00 in   Scattered Clouds
12:56 AM 3.0 °F -10.5 °F -0.9 °F 84% 30.35 in 10.0 mi SW 8.1 mph - 0.00 in   Clear
1:56 AM 3.0 °F -11.5 °F -0.9 °F 84% 30.36 in 10.0 mi SW 9.2 mph - N/A   Overcast
3:56 AM 7.2 °F -8.1 °F 3.0 °F 83% 30.37 in 10.0 mi SSW 11.5 mph - N/A   Mostly Cloudy
4:56 AM 8.1 °F -7.7 °F 4.1 °F 84% 30.37 in 10.0 mi SW 12.7 mph - N/A   Overcast
5:56 AM 9.1 °F -5.6 °F 5.0 °F 83% 30.36 in 10.0 mi SW 11.5 mph - N/A   Overcast
6:56 AM 9.1 °F -4.9 °F 6.1 °F 87% 30.36 in 10.0 mi SW 10.4 mph - N/A   Overcast
7:56 AM 10.0 °F -4.5 °F 7.2 °F 88% 30.37 in 8.0 mi SW 11.5 mph - 0.00 in Snow Light Snow
8:41 AM 10.4 °F -4.1 °F 6.8 °F 85% 30.35 in 5.0 mi SW 11.5 mph - 0.00 in Snow Light Snow
8:56 AM 10.4 °F -2.4 °F 8.6 °F 92% 30.35 in 4.0 mi SSW 9.2 mph - N/A Snow Light Snow
9:22 AM 10.4 °F -0.4 °F 8.6 °F 92% 30.35 in 4.0 mi SSW 6.9 mph - 0.00 in Snow Light Snow
9:56 AM 12.0 °F -0.4 °F 9.1 °F 88% 30.36 in 3.0 mi SSW 9.2 mph - 0.00 in Snow Light Snow
10:03 AM 12.2 °F -1.0 °F 8.6 °F 85% 30.35 in 2.5 mi SW 10.4 mph - 0.00 in Snow Light Snow
10:10 AM 12.2 °F -1.8 °F 10.4 °F 92% 30.34 in 2.0 mi SW 11.5 mph - 0.00 in Snow Light Snow
10:56 AM 14.0 °F 1.2 °F 11.1 °F 88% 30.37 in 2.5 mi SW 10.4 mph - 0.00 in Snow Light Snow
11:15 AM 14.0 °F -0.8 °F 10.4 °F 86% 30.34 in 5.0 mi SW 13.8 mph - 0.00 in Snow Light Snow
11:56 AM 14.0 °F -1.4 °F 10.4 °F 86% 30.34 in 10.0 mi SW 15.0 mph - N/A   Overcast
12:56 PM 15.1 °F 1.1 °F 12.0 °F 88% 30.36 in 10.0 mi SW 12.7 mph - 0.00 in   Overcast
1:56 PM 15.1 °F 1.1 °F 12.0 °F 88% 30.35 in 10.0 mi SW 12.7 mph - 0.00 in Snow Light Snow
2:56 PM 16.2 °F 0.8 °F 13.1 °F 88% 30.34 in 10.0 mi WSW 16.1 mph - 0.00 in   Overcast
3:56 PM 16.2 °F 1.3 °F 13.1 °F 88% 30.33 in 10.0 mi WSW 15.0 mph - N/A   Overcast
4:56 PM 16.2 °F 3.2 °F 14.0 °F 91% 30.33 in 10.0 mi SW 11.5 mph - N/A   Overcast
5:56 PM 17.6 °F 3.2 °F 14.0 °F 86% 30.30 in 10.0 mi SW 15.0 mph - N/A Snow Light Snow
6:14 PM 17.6 °F 3.7 °F 14.0 °F 86% 30.30 in 4.0 mi SW 13.8 mph - 0.00 in Snow Light Snow
6:56 PM 18.1 °F 3.4 °F 15.1 °F 88% 30.31 in 10.0 mi SW 16.1 mph - 0.00 in Snow Light Snow
7:39 PM 17.6 °F 2.7 °F 15.8 °F 93% 30.28 in 10.0 mi SW 16.1 mph - 0.00 in Snow Light Snow
7:56 PM 18.1 °F 3.4 °F 15.1 °F 88% 30.30 in 10.0 mi SW 16.1 mph - 0.00 in Snow Light Snow
8:56 PM 17.6 °F 3.7 °F 15.8 °F 93% 30.28 in 10.0 mi SW 13.8 mph - N/A   Overcast
9:56 PM 18.1 °F 3.9 °F 15.1 °F 88% 30.29 in 10.0 mi SW 15.0 mph - 0.00 in Snow Light Snow
10:33 PM 17.6 °F 3.2 °F 15.8 °F 93% 30.27 in 10.0 mi SW 15.0 mph - 0.00 in Snow Light Snow
10:56 PM 18.1 °F 3.9 °F 16.2 °F 92% 30.28 in 10.0 mi SW 15.0 mph - 0.00 in Snow Light Snow
11:08 PM 17.6 °F 3.2 °F 15.8 °F 93% 30.26 in 10.0 mi SW 15.0 mph - 0.00 in Snow Light Snow
11:56 PM 18.1 °F 4.4 °F 16.2 °F 92% 30.27 in 10.0 mi SW 13.8 mph - 0.00 in   Overcast